Home   Weather   Omaha   Past weeks

Flag for USA Past Weather in Omaha, Nebraska, USA — Yesterday and Last 2 Weeks

Now
41 °F

Fog.


Feels Like: 41 °F
Forecast: 39 / 46 °F
Wind: No wind

Location: Millard Airport

Current Time: Jan 20, 2017 at 1:58:21 am

Latest Report: Jan 20, 2017 at 1:35 am


Visibility: 1 mi

Pressure: 29.59 "Hg

Humidity: 97%

Dew Point: 40 °F

Location of OmahaLocation

Past Weather in Omaha — Graph

°F

Omaha Temperature Yesterday

Maximum temperature yesterday: 45 °F (at 2:55 pm)
Minimum temperature yesterday: 32 °F (at 7:15 am)
Average temperature yesterday: 40 °F

High & Low Weather Summary for the Past Weeks

 TemperatureHumidityPressure
High54 °F (Jan 18, 2:15 pm)98% (Jan 19, 7:15 am)30.70 "Hg (Jan 19, 7:15 am)
Low0 °F (Jan 6, 6:55 am)28% (Jan 13, 4:35 pm)29.34 "Hg (Jan 10, 4:15 am)
Average26 °F73%30.15 "Hg
* Reported Jan 5 12:15 am — Jan 20 12:35 am, Omaha, Weather by CustomWeather, © 2017

Note: Actual official high and low records may vary slightly from our data, if they occured in-between our weather recording intervals... More about our weather records

Advertising

Omaha Weather History for the Previous 24 Hours

Scroll right to see more
 ConditionsComfort  
Time TempWeatherWind HumidityBarometerVisibility
12:35 am
Fri, Jan 20
42 °FFog.No wind97%29.60 "Hg3 mi
11:55 pm
Thu, Jan 19
42 °FFog.No wind97%29.60 "Hg2 mi
11:15 pm42 °FFog.No wind97%29.62 "Hg1 mi
10:55 pm42 °FFog.3 mph97%29.63 "Hg3 mi
10:15 pm42 °FFog.3 mph97%29.63 "Hg3 mi
9:55 pm42 °FFog.No wind97%29.64 "Hg1 mi
9:15 pm41 °FFog.No wind97%29.65 "Hg1 mi
8:55 pm41 °FFog.No wind97%29.66 "Hg1 mi
8:35 pm41 °FDrizzle. Mostly cloudy.No wind97%29.66 "Hg1 mi
7:55 pm42 °FFog.No wind97%29.67 "Hg1 mi
7:35 pm42 °FFog.No wind97%29.66 "Hg0 mi
6:55 pm43 °FDrizzle. Low clouds.No wind97%29.66 "Hg0 mi
6:15 pm43 °FFog.3 mph97%29.66 "Hg1 mi
5:55 pm43 °FFog.No wind97%29.66 "Hg1 mi
5:15 pm44 °FFog.No wind96%29.66 "Hg1 mi
4:55 pm44 °FFog.No wind95%29.65 "Hg1 mi
4:15 pm44 °FFog.No wind95%29.66 "Hg1 mi
3:35 pm44 °FFog.3 mph93%29.66 "Hg3 mi
2:55 pm45 °FFog.3 mph92%29.67 "Hg3 mi
2:35 pm44 °FFog.3 mph92%29.67 "Hg4 mi
1:55 pm44 °FFog.6 mph92%29.68 "Hg4 mi
1:35 pm44 °FFog.7 mph93%29.69 "Hg4 mi
12:55 pm43 °FFog.8 mph95%29.70 "Hg3 mi
12:15 pm42 °FFog.7 mph97%29.74 "Hg2 mi
11:55 am42 °FFog.8 mph96%29.75 "Hg1 mi
11:15 am41 °FFog.8 mph97%29.77 "Hg1 mi
10:55 am40 °FFog.8 mph97%29.78 "Hg1 mi
10:15 am39 °FFog.3 mph95%29.78 "Hg1 mi
9:55 am38 °FFog.3 mph96%29.79 "Hg1 mi
9:15 am35 °FFog.No wind96%29.79 "Hg2 mi
8:55 am35 °FFog.No wind95%29.78 "Hg2 mi
8:35 am34 °FFog.No wind97%29.79 "Hg2 mi
7:55 am33 °FFog.No wind96%29.79 "Hg1 mi
7:15 am32 °FFog.No wind98%29.79 "Hg1 mi
6:55 am33 °FFog.No wind95%29.79 "Hg2 mi
6:35 am34 °FFog.No wind95%29.79 "Hg2 mi
5:55 am34 °FFog.7 mph96%29.78 "Hg4 mi
5:15 am33 °FFog.No wind95%29.80 "Hg2 mi
4:55 am35 °FFog.No wind94%29.80 "Hg5 mi
4:15 am34 °FClear.5 mph93%29.81 "Hg7 mi
3:35 am36 °FClear.5 mph92%29.83 "Hg10 mi
2:55 am36 °FPassing clouds.7 mph91%29.84 "Hg10 mi
2:15 am36 °FClear.6 mph89%29.85 "Hg10 mi
1:55 am38 °FClear.5 mph87%29.85 "Hg10 mi
1:15 am39 °FClear.7 mph86%29.86 "Hg10 mi
Weather by CustomWeather, © 2017

See weather overviewHow to use our weather pages